Portage, MI

10:01 PM EST on February 10, 2016 (GMT -0500)
Kalamazoo-Battle Creek International

Weather History for KAZO - January, 1986

Change the Weather History Date:

Saturday, January 25, 1986

  Actual Average Record
Temperature  
Mean Temperature 32 °F 24 °F  
Max Temperature 37 °F 31 °F 67 °F (1950)
Min Temperature 27 °F 18 °F -10 °F (1961)
Degree Days  
Heating Degree Days 33 41  
Month to date heating degree days 1017  
Since 1 July heating degree days 3468  
Cooling Degree Days 0 0  
Month to date cooling degree days 0  
Year to date cooling degree days 0  
Moisture  
Dew Point 27 °F    
Average Humidity 83    
Maximum Humidity 96    
Minimum Humidity 69    
Precipitation  
Precipitation 0.00 in 0.06 in 0.41 in (1985)
Month to date precipitation 1.44  
Year to date precipitation 1.44  
Sea Level Pressure  
Sea Level Pressure 29.87 in    
Wind  
Wind Speed 14 mph (WSW)    
Max Wind Speed 21 mph    
Max Gust Speed 29 mph    
Visibility 6 miles    
Events Fog    
T = Trace of Precipitation, MM = Missing Value Source: NWS Daily Summary

Daily Weather History Graph

Daily Weather History Graph

Search for Another Location

Airport or City:

Trip Planner

Search our weather history database for the weather conditions in past years. The results will help you decide how hot, cold, wet, or windy it might be!

Date:

Astronomy

Jan. 25, 1986 Rise Set
Actual Time 8:02 AM EST 5:47 PM EST
Civil Twilight 7:31 AM EST 6:17 PM EST
Nautical Twilight 6:57 AM EST 6:51 PM EST
Astronomical Twilight 6:24 AM EST 7:24 PM EST
Moon 5:20 PM EST (1/25) 8:16 AM EST (1/25)
Length of Visible Light 10h 45m
Length of Day
9h 45m
Full, 100% of the Moon is Illuminated
Jan 25
Full
Jan 25
Full
Feb 1
Last Quarter
Feb 8
New
Feb 16
First Quarter

Hourly Weather History & Observations

Time (EST) Temp. Windchill Dew Point Humidity Pressure Visibility Wind Dir Wind Speed Gust Speed Precip Events Conditions
6:00 AM 37.0 °F 28.9 °F 35.1 °F 93% 29.83 in 7.0 mi South 12.7 mph - N/A   Overcast
7:00 AM 37.0 °F 28.5 °F 35.1 °F 93% 29.84 in 7.0 mi South 13.8 mph 23.0 mph N/A   Overcast
8:00 AM 37.0 °F 28.5 °F 35.1 °F 93% 29.84 in 5.0 mi South 13.8 mph 23.0 mph N/A Fog Fog
9:00 AM 36.0 °F 27.1 °F 34.0 °F 93% 29.85 in 5.0 mi SW 13.8 mph 23.0 mph N/A Fog Light Drizzle
10:00 AM 33.1 °F 23.0 °F 32.0 °F 96% 29.87 in 2.0 mi SW 15.0 mph 23.0 mph N/A Fog Light Drizzle
11:00 AM 33.1 °F 24.4 °F 31.1 °F 92% 29.89 in 3.0 mi WSW 11.5 mph 20.7 mph N/A Fog Fog
12:20 PM - - - N/A% 29.88 in 4.0 mi WSW 13.8 mph 20.7 mph N/A Fog Light Freezing Drizzle
1:00 PM 32.0 °F 22.1 °F 28.2 °F 86% 29.87 in 4.0 mi WSW 13.8 mph 20.7 mph N/A Fog Light Freezing Drizzle
1:25 PM - - - N/A% 29.86 in 5.0 mi WSW 13.8 mph 20.7 mph N/A Fog Fog
2:15 PM - - - N/A% 29.85 in 2.0 mi WSW 17.3 mph 28.8 mph N/A Fog Fog
3:00 PM 32.0 °F 22.1 °F 27.1 °F 82% 29.86 in 4.0 mi WSW 13.8 mph 23.0 mph N/A Fog Fog
4:00 PM 30.2 °F 18.5 °F 23.2 °F 75% 29.87 in 4.0 mi West 17.3 mph 28.8 mph N/A Fog Fog
5:00 PM 29.1 °F 17.9 °F 25.2 °F 85% 29.88 in 3.0 mi WSW 15.0 mph - N/A Fog Fog
6:00 PM 30.2 °F 17.4 °F 25.2 °F 82% 29.88 in 5.0 mi WSW 20.7 mph - N/A   Light Freezing Rain
7:00 PM 30.2 °F 20.8 °F 24.3 °F 79% 29.88 in 10.0 mi West 11.5 mph - N/A   Overcast
8:00 PM 30.2 °F 18.5 °F 21.2 °F 69% 29.89 in 10.0 mi WSW 17.3 mph - N/A   Overcast
9:00 PM 28.2 °F 15.9 °F 20.1 °F 72% 29.90 in 10.0 mi West 17.3 mph 25.3 mph N/A   Overcast
10:00 PM 27.1 °F 14.5 °F 19.2 °F 72% 29.91 in 10.0 mi West 17.3 mph - N/A   Overcast
11:00 PM 27.1 °F 15.9 °F 19.2 °F 72% 29.90 in 10.0 mi West 13.8 mph - N/A   Overcast